Home   Weather   Thun   Past weeks

Flag for Switzerland Past Weather in Thun, Bern, Switzerland — Yesterday and Last 2 Weeks

Now
45 °F

Partly sunny.


Feels Like: 45 °F
Forecast: 33 / 68 °F
Wind: 1 mph from North

Location: Bern / Belp

Current Time: Apr 23, 2017 at 7:42:48 am

Latest Report: Apr 23, 2017 at 6:50 am


Visibility: N/A

Pressure: 30.18 "Hg (28.20 "Hg at 557m altitude)

Humidity: 76%

Dew Point: 37 °F

Location of ThunLocation

Past Weather in Thun — Graph

°F

Thun Temperature Yesterday

Maximum temperature yesterday: 64 °F (at 3:20 pm)
Minimum temperature yesterday: 28 °F (at 6:50 am)
Average temperature yesterday: 48 °F

High & Low Weather Summary for the Past Weeks

 TemperatureHumidityPressure
High75 °F (Apr 9, 5:20 pm)100% (Apr 8, 6:20 am)30.45 "Hg (Apr 8, 6:20 am)
Low21 °F (Apr 21, 5:50 am)23% (Apr 9, 4:50 pm)29.95 "Hg (Apr 13, 3:50 pm)
Average48 °F68%30.18 "Hg
* Reported Apr 8 6:20 am — Apr 23 6:20 am, Thun, Weather by CustomWeather, © 2017

Note: Actual official high and low records may vary slightly from our data, if they occured in-between our weather recording intervals... More about our weather records

Advertising

Thun Weather History for the Previous 24 Hours

Scroll right to see more
 ConditionsComfort  
Time TempWeatherWind HumidityBarometerVisibility
6:20 am
Sun, Apr 23
46 °FPartly cloudy.1 mph71%30.15 "HgN/A
5:50 am46 °FMostly cloudy.1 mph71%30.15 "HgN/A
5:20 am46 °FOvercast.1 mph76%30.15 "HgN/A
4:50 am46 °FOvercast.1 mph76%30.15 "HgN/A
4:20 am46 °FOvercast.3 mph76%30.15 "HgN/A
3:50 am48 °FOvercast.3 mph71%30.15 "HgN/A
3:20 am48 °FOvercast.5 mph71%30.15 "HgN/A
2:50 am48 °FOvercast.3 mph71%30.15 "HgN/A
2:20 am48 °FOvercast.2 mph71%30.18 "HgN/A
1:50 am50 °FOvercast.1 mph62%30.18 "HgN/A
1:20 am48 °FOvercast.2 mph66%30.18 "HgN/A
12:50 am50 °FMostly cloudy.2 mph67%30.18 "HgN/A
12:20 am50 °FPassing clouds.2 mph62%30.18 "HgN/A
11:50 pm
Sat, Apr 22
50 °FMostly cloudy.1 mph67%30.18 "HgN/A
11:20 pm52 °FMostly cloudy.1 mph58%30.18 "HgN/A
10:50 pm50 °FOvercast.2 mph67%30.18 "HgN/A
10:20 pm52 °FOvercast.5 mph58%30.18 "HgN/A
9:50 pm52 °FOvercast.7 mph58%30.18 "HgN/A
9:20 pm54 °FOvercast.8 mph51%30.18 "HgN/A
8:50 pm54 °FPassing clouds.7 mph51%30.15 "HgN/A
8:20 pm55 °FBroken clouds.8 mph47%30.15 "HgN/A
7:50 pm57 °FScattered clouds.10 mph44%30.15 "HgN/A
7:20 pm57 °FScattered clouds.10 mph44%30.15 "HgN/A
6:50 pm59 °FScattered clouds.13 mph42%30.12 "HgN/A
6:20 pm59 °FPassing clouds.14 mph45%30.12 "HgN/A
5:50 pm63 °FPassing clouds.12 mph39%30.12 "HgN/A
5:20 pm63 °FPassing clouds.12 mph34%30.12 "HgN/A
4:50 pm64 °FPassing clouds.12 mph32%30.12 "HgN/A
4:20 pm64 °FSunny.13 mph34%30.15 "Hg10 mi
3:50 pm64 °FPassing clouds.13 mph32%30.15 "HgN/A
3:20 pm64 °FPassing clouds.7 mph34%30.15 "HgN/A
2:50 pm63 °FPassing clouds.12 mph30%30.18 "HgN/A
1:50 pm63 °FPassing clouds.10 mph32%30.21 "HgN/A
1:20 pm61 °FPassing clouds.10 mph31%30.21 "HgN/A
12:50 pm59 °FPassing clouds.9 mph36%30.24 "HgN/A
12:20 pm59 °FPassing clouds.9 mph34%30.24 "HgN/A
11:50 am57 °FPassing clouds.7 mph33%30.24 "HgN/A
11:20 am55 °FPassing clouds.5 mph41%30.27 "HgN/A
10:50 am54 °FSunny.2 mph44%30.27 "Hg10 mi
10:20 am50 °FSunny.2 mph50%30.27 "Hg10 mi
9:50 am50 °FPassing clouds.3 mph54%30.27 "HgN/A
9:20 am48 °FSunny.2 mph54%30.30 "Hg10 mi
8:50 am43 °FSunny.1 mph66%30.30 "Hg10 mi
8:20 am37 °FSunny.No wind81%30.30 "Hg10 mi
7:50 am34 °FSunny.1 mph87%30.30 "Hg10 mi
7:20 am30 °FSunny.3 mph93%30.30 "Hg10 mi
Weather by CustomWeather, © 2017

See weather overviewHow to use our weather pages